sat.trackr.live / text

‹ back to catalog

ONEWEB-0656

NORAD 55817 · 2023-029X

PAYLOAD ACTIVE UNKNOWN

§ Identity

Operator
Country
UK
Launch date
2023-03-09
Launch site
AFETR
Launch vehicle
Mass (kg)
RCS (m²)

Purposes: comms

External: N2YO · Heavens-Above · Gunter

§ Orbital elements

Epoch: 2026-09-19T17:58:22.125216Z

Period
109.03 min
Inclination
87.9146°
Eccentricity
0.0002188
Mean motion
13.20769912 rev/d
Perigee alt
1,180.1 km
Apogee alt
1,183.4 km
Semi-major
7,559.9 km
B*
1.2275e-4
RAAN
255.5678°
Arg perigee
98.8288°
Mean anomaly
261.3093°
Rev number
17,363

§ Raw data

ONEWEB-06561 55817U 23029X   26262.74886719  .00000063  00000+0  12275-3 0  99982 55817  87.9146 255.5678 0002188  98.8288 261.3093 13.20769912173637

JSON: /api/v1/satellites/55817 · /tle

For live sub-satellite position, see the globe view (requires WebGL).

§ Visibility from observer

Set your observer location to see the next 7 days of passes ≥ 10°. The values pass through the URL so the page stays shareable.

No JS? Fill the form by hand. The geolocation button needs JavaScript.